owner,sensor,date,latitude,longitude,relative_humidity,qcFlag 
DISL,ioos:station:DISL:KATA:1,2017-02-01T00:00:00Z,30.2583,-88.2131,78.3,1111122 
DISL,ioos:station:DISL:KATA:1,2017-02-01T00:30:00Z,30.2583,-88.2131,80.1,1111122 
DISL,ioos:station:DISL:KATA:1,2017-02-01T01:00:00Z,30.2583,-88.2131,80.2,1111122 
DISL,ioos:station:DISL:KATA:1,2017-02-01T01:30:00Z,30.2583,-88.2131,80.0,1111122 
DISL,ioos:station:DISL:KATA:1,2017-02-01T02:00:00Z,30.2583,-88.2131,80.0,1111122 
DISL,ioos:station:DISL:KATA:1,2017-02-01T02:30:00Z,30.2583,-88.2131,77.39,1111122 
DISL,ioos:station:DISL:KATA:1,2017-02-01T03:00:00Z,30.2583,-88.2131,78.34,1111122 
DISL,ioos:station:DISL:KATA:1,2017-02-01T03:30:00Z,30.2583,-88.2131,79.06,1111122 
DISL,ioos:station:DISL:KATA:1,2017-02-01T04:00:00Z,30.2583,-88.2131,79.4,1111122 
DISL,ioos:station:DISL:KATA:1,2017-02-01T04:30:00Z,30.2583,-88.2131,79.77,1111122 
DISL,ioos:station:DISL:KATA:1,2017-02-01T05:00:00Z,30.2583,-88.2131,79.16,1111122 
DISL,ioos:station:DISL:KATA:1,2017-02-01T05:30:00Z,30.2583,-88.2131,78.0,1111122 
DISL,ioos:station:DISL:KATA:1,2017-02-01T06:00:00Z,30.2583,-88.2131,77.97,1111122 
DISL,ioos:station:DISL:KATA:1,2017-02-01T06:30:00Z,30.2583,-88.2131,80.3,1111122 
DISL,ioos:station:DISL:KATA:1,2017-02-01T07:00:00Z,30.2583,-88.2131,81.0,1111122 
DISL,ioos:station:DISL:KATA:1,2017-02-01T07:30:00Z,30.2583,-88.2131,81.6,1111122 
DISL,ioos:station:DISL:KATA:1,2017-02-01T08:00:00Z,30.2583,-88.2131,81.0,1111122 
DISL,ioos:station:DISL:KATA:1,2017-02-01T08:30:00Z,30.2583,-88.2131,82.8,1111122 
DISL,ioos:station:DISL:KATA:1,2017-02-01T09:00:00Z,30.2583,-88.2131,84.7,1111122 
DISL,ioos:station:DISL:KATA:1,2017-02-01T09:30:00Z,30.2583,-88.2131,85.4,1111122 
DISL,ioos:station:DISL:KATA:1,2017-02-01T10:00:00Z,30.2583,-88.2131,85.2,1111122 
DISL,ioos:station:DISL:KATA:1,2017-02-01T10:30:00Z,30.2583,-88.2131,85.6,1111122 
DISL,ioos:station:DISL:KATA:1,2017-02-01T11:00:00Z,30.2583,-88.2131,87.4,1111122 
DISL,ioos:station:DISL:KATA:1,2017-02-01T11:30:00Z,30.2583,-88.2131,86.3,1111122 
DISL,ioos:station:DISL:KATA:1,2017-02-01T12:00:00Z,30.2583,-88.2131,84.6,1111122 
DISL,ioos:station:DISL:KATA:1,2017-02-01T12:30:00Z,30.2583,-88.2131,84.1,1111122 
DISL,ioos:station:DISL:KATA:1,2017-02-01T13:00:00Z,30.2583,-88.2131,79.97,1111122 
DISL,ioos:station:DISL:KATA:1,2017-02-01T13:30:00Z,30.2583,-88.2131,78.82,1111122 
DISL,ioos:station:DISL:KATA:1,2017-02-01T14:00:00Z,30.2583,-88.2131,77.99,1111122 
DISL,ioos:station:DISL:KATA:1,2017-02-01T14:30:00Z,30.2583,-88.2131,77.37,1111122 
DISL,ioos:station:DISL:KATA:1,2017-02-01T15:00:00Z,30.2583,-88.2131,89.5,1111122 
DISL,ioos:station:DISL:KATA:1,2017-02-01T15:30:00Z,30.2583,-88.2131,88.8,1111122 
DISL,ioos:station:DISL:KATA:1,2017-02-01T16:00:00Z,30.2583,-88.2131,90.4,1111122 
DISL,ioos:station:DISL:KATA:1,2017-02-01T16:30:00Z,30.2583,-88.2131,89.5,1111122 
DISL,ioos:station:DISL:KATA:1,2017-02-01T17:00:00Z,30.2583,-88.2131,88.1,1111122 
DISL,ioos:station:DISL:KATA:1,2017-02-01T17:30:00Z,30.2583,-88.2131,88.0,1111122 
DISL,ioos:station:DISL:KATA:1,2017-02-01T18:00:00Z,30.2583,-88.2131,86.7,1111122 
DISL,ioos:station:DISL:KATA:1,2017-02-01T18:30:00Z,30.2583,-88.2131,85.9,1111122 
DISL,ioos:station:DISL:KATA:1,2017-02-01T19:00:00Z,30.2583,-88.2131,85.3,1111122 
DISL,ioos:station:DISL:KATA:1,2017-02-01T19:30:00Z,30.2583,-88.2131,86.7,1111122 
DISL,ioos:station:DISL:KATA:1,2017-02-01T20:00:00Z,30.2583,-88.2131,90.3,1111122 
DISL,ioos:station:DISL:KATA:1,2017-02-01T20:30:00Z,30.2583,-88.2131,90.9,1111122 
DISL,ioos:station:DISL:KATA:1,2017-02-01T21:00:00Z,30.2583,-88.2131,88.9,1111122 
DISL,ioos:station:DISL:KATA:1,2017-02-01T21:30:00Z,30.2583,-88.2131,89.7,1111122 
DISL,ioos:station:DISL:KATA:1,2017-02-01T22:00:00Z,30.2583,-88.2131,88.4,1111122 
DISL,ioos:station:DISL:KATA:1,2017-02-01T22:30:00Z,30.2583,-88.2131,89.3,1111122 
DISL,ioos:station:DISL:KATA:1,2017-02-01T23:00:00Z,30.2583,-88.2131,92.0,1111122 
DISL,ioos:station:DISL:KATA:1,2017-02-01T23:30:00Z,30.2583,-88.2131,93.2,1111122 
DISL,ioos:station:DISL:KATA:1,2017-02-02T00:00:00Z,30.2583,-88.2131,95.9,1111122 
DISL,ioos:station:DISL:KATA:1,2017-02-02T00:30:00Z,30.2583,-88.2131,94.8,1111122 
DISL,ioos:station:DISL:KATA:1,2017-02-02T01:00:00Z,30.2583,-88.2131,95.2,1111122 
DISL,ioos:station:DISL:KATA:1,2017-02-02T01:30:00Z,30.2583,-88.2131,96.8,1111122 
DISL,ioos:station:DISL:KATA:1,2017-02-02T02:00:00Z,30.2583,-88.2131,97.5,1111122 
DISL,ioos:station:DISL:KATA:1,2017-02-02T02:30:00Z,30.2583,-88.2131,98.4,1111122 
DISL,ioos:station:DISL:KATA:1,2017-02-02T03:00:00Z,30.2583,-88.2131,99.6,1111122 
DISL,ioos:station:DISL:KATA:1,2017-02-02T03:30:00Z,30.2583,-88.2131,100.0,1111122 
DISL,ioos:station:DISL:KATA:1,2017-02-02T04:00:00Z,30.2583,-88.2131,100.0,1111122 
DISL,ioos:station:DISL:KATA:1,2017-02-02T04:30:00Z,30.2583,-88.2131,100.0,1111122 
DISL,ioos:station:DISL:KATA:1,2017-02-02T05:00:00Z,30.2583,-88.2131,99.4,1111122 
DISL,ioos:station:DISL:KATA:1,2017-02-02T05:30:00Z,30.2583,-88.2131,99.0,1111122 
DISL,ioos:station:DISL:KATA:1,2017-02-02T06:00:00Z,30.2583,-88.2131,99.3,1111122 
DISL,ioos:station:DISL:KATA:1,2017-02-02T06:30:00Z,30.2583,-88.2131,99.2,1111122 
DISL,ioos:station:DISL:KATA:1,2017-02-02T07:00:00Z,30.2583,-88.2131,100.0,1111122 
DISL,ioos:station:DISL:KATA:1,2017-02-02T07:30:00Z,30.2583,-88.2131,100.0,1111122 
DISL,ioos:station:DISL:KATA:1,2017-02-02T08:00:00Z,30.2583,-88.2131,100.0,1111122 
DISL,ioos:station:DISL:KATA:1,2017-02-02T08:30:00Z,30.2583,-88.2131,100.0,1111122 
DISL,ioos:station:DISL:KATA:1,2017-02-02T09:00:00Z,30.2583,-88.2131,100.0,1111122 
DISL,ioos:station:DISL:KATA:1,2017-02-02T09:30:00Z,30.2583,-88.2131,100.0,1111122 
DISL,ioos:station:DISL:KATA:1,2017-02-02T10:00:00Z,30.2583,-88.2131,100.0,1111122 
DISL,ioos:station:DISL:KATA:1,2017-02-02T10:30:00Z,30.2583,-88.2131,100.0,1111122 
DISL,ioos:station:DISL:KATA:1,2017-02-02T11:00:00Z,30.2583,-88.2131,100.0,1111122 
DISL,ioos:station:DISL:KATA:1,2017-02-02T11:30:00Z,30.2583,-88.2131,100.0,1111122 
DISL,ioos:station:DISL:KATA:1,2017-02-02T12:00:00Z,30.2583,-88.2131,100.0,1111122 
DISL,ioos:station:DISL:KATA:1,2017-02-02T12:30:00Z,30.2583,-88.2131,100.0,1111122 
DISL,ioos:station:DISL:KATA:1,2017-02-02T13:00:00Z,30.2583,-88.2131,100.0,1111122 
DISL,ioos:station:DISL:KATA:1,2017-02-02T13:30:00Z,30.2583,-88.2131,100.0,1111122 
DISL,ioos:station:DISL:KATA:1,2017-02-02T14:00:00Z,30.2583,-88.2131,100.0,1111122 
DISL,ioos:station:DISL:KATA:1,2017-02-02T14:30:00Z,30.2583,-88.2131,100.0,1111122 
DISL,ioos:station:DISL:KATA:1,2017-02-02T15:00:00Z,30.2583,-88.2131,100.0,1111122 
DISL,ioos:station:DISL:KATA:1,2017-02-02T15:30:00Z,30.2583,-88.2131,100.0,1111122 
DISL,ioos:station:DISL:KATA:1,2017-02-02T16:00:00Z,30.2583,-88.2131,100.0,1111122 
DISL,ioos:station:DISL:KATA:1,2017-02-02T16:30:00Z,30.2583,-88.2131,99.6,1111122 
DISL,ioos:station:DISL:KATA:1,2017-02-02T17:00:00Z,30.2583,-88.2131,90.4,1111122 
DISL,ioos:station:DISL:KATA:1,2017-02-02T17:30:00Z,30.2583,-88.2131,85.0,1111122 
DISL,ioos:station:DISL:KATA:1,2017-02-02T18:00:00Z,30.2583,-88.2131,84.3,1111122 
DISL,ioos:station:DISL:KATA:1,2017-02-02T18:30:00Z,30.2583,-88.2131,91.4,1111122 
DISL,ioos:station:DISL:KATA:1,2017-02-02T19:00:00Z,30.2583,-88.2131,90.8,1111122 
DISL,ioos:station:DISL:KATA:1,2017-02-02T19:30:00Z,30.2583,-88.2131,92.4,1111122 
DISL,ioos:station:DISL:KATA:1,2017-02-02T20:00:00Z,30.2583,-88.2131,93.5,1111122 
DISL,ioos:station:DISL:KATA:1,2017-02-02T20:30:00Z,30.2583,-88.2131,92.5,1111122 
DISL,ioos:station:DISL:KATA:1,2017-02-02T21:00:00Z,30.2583,-88.2131,92.2,1111122 
DISL,ioos:station:DISL:KATA:1,2017-02-02T21:30:00Z,30.2583,-88.2131,91.6,1111122 
DISL,ioos:station:DISL:KATA:1,2017-02-02T22:00:00Z,30.2583,-88.2131,92.6,1111122 
DISL,ioos:station:DISL:KATA:1,2017-02-02T22:30:00Z,30.2583,-88.2131,95.4,1111122 
DISL,ioos:station:DISL:KATA:1,2017-02-02T23:00:00Z,30.2583,-88.2131,97.5,1111122 
DISL,ioos:station:DISL:KATA:1,2017-02-02T23:30:00Z,30.2583,-88.2131,100.0,1111122 
DISL,ioos:station:DISL:KATA:1,2017-02-03T00:00:00Z,30.2583,-88.2131,100.0,1111122 
DISL,ioos:station:DISL:KATA:1,2017-02-03T00:30:00Z,30.2583,-88.2131,100.0,1111122 
DISL,ioos:station:DISL:KATA:1,2017-02-03T01:00:00Z,30.2583,-88.2131,100.0,1111122 
DISL,ioos:station:DISL:KATA:1,2017-02-03T01:30:00Z,30.2583,-88.2131,100.0,1111122 
DISL,ioos:station:DISL:KATA:1,2017-02-03T02:00:00Z,30.2583,-88.2131,100.0,1111122 
DISL,ioos:station:DISL:KATA:1,2017-02-03T02:30:00Z,30.2583,-88.2131,100.0,1111122 
DISL,ioos:station:DISL:KATA:1,2017-02-03T03:00:00Z,30.2583,-88.2131,100.0,1111122 
DISL,ioos:station:DISL:KATA:1,2017-02-03T03:30:00Z,30.2583,-88.2131,100.0,1111122 
DISL,ioos:station:DISL:KATA:1,2017-02-03T04:00:00Z,30.2583,-88.2131,100.0,1111122 
DISL,ioos:station:DISL:KATA:1,2017-02-03T04:30:00Z,30.2583,-88.2131,100.0,1111122 
DISL,ioos:station:DISL:KATA:1,2017-02-03T05:00:00Z,30.2583,-88.2131,100.0,1111122 
DISL,ioos:station:DISL:KATA:1,2017-02-03T05:30:00Z,30.2583,-88.2131,100.0,1111122 
DISL,ioos:station:DISL:KATA:1,2017-02-03T06:00:00Z,30.2583,-88.2131,100.0,1111122 
DISL,ioos:station:DISL:KATA:1,2017-02-03T06:30:00Z,30.2583,-88.2131,100.0,1111122 
DISL,ioos:station:DISL:KATA:1,2017-02-03T07:00:00Z,30.2583,-88.2131,100.0,1111122 
DISL,ioos:station:DISL:KATA:1,2017-02-03T07:30:00Z,30.2583,-88.2131,100.0,1111122 
DISL,ioos:station:DISL:KATA:1,2017-02-03T08:00:00Z,30.2583,-88.2131,108.1,1111122 
DISL,ioos:station:DISL:KATA:1,2017-02-03T08:30:00Z,30.2583,-88.2131,108.1,1111122 
DISL,ioos:station:DISL:KATA:1,2017-02-03T09:00:00Z,30.2583,-88.2131,108.5,1111122 
DISL,ioos:station:DISL:KATA:1,2017-02-03T09:30:00Z,30.2583,-88.2131,108.7,1111122 
DISL,ioos:station:DISL:KATA:1,2017-02-03T10:00:00Z,30.2583,-88.2131,109.1,1111122 
DISL,ioos:station:DISL:KATA:1,2017-02-03T10:30:00Z,30.2583,-88.2131,108.8,1111122 
DISL,ioos:station:DISL:KATA:1,2017-02-03T11:00:00Z,30.2583,-88.2131,109.1,1111122 
DISL,ioos:station:DISL:KATA:1,2017-02-03T11:30:00Z,30.2583,-88.2131,109.1,1111122 
DISL,ioos:station:DISL:KATA:1,2017-02-03T12:00:00Z,30.2583,-88.2131,109.2,1111122 
DISL,ioos:station:DISL:KATA:1,2017-02-03T12:30:00Z,30.2583,-88.2131,109.4,1111122 
DISL,ioos:station:DISL:KATA:1,2017-02-03T13:00:00Z,30.2583,-88.2131,109.3,1111122 
DISL,ioos:station:DISL:KATA:1,2017-02-03T13:30:00Z,30.2583,-88.2131,109.4,1111122 
DISL,ioos:station:DISL:KATA:1,2017-02-03T14:00:00Z,30.2583,-88.2131,109.6,1111122 
DISL,ioos:station:DISL:KATA:1,2017-02-03T14:30:00Z,30.2583,-88.2131,109.7,1111122 
DISL,ioos:station:DISL:KATA:1,2017-02-03T15:00:00Z,30.2583,-88.2131,111.3,1111122 
DISL,ioos:station:DISL:KATA:1,2017-02-03T15:30:00Z,30.2583,-88.2131,111.3,1111122 
DISL,ioos:station:DISL:KATA:1,2017-02-03T16:00:00Z,30.2583,-88.2131,111.4,1111122 
DISL,ioos:station:DISL:KATA:1,2017-02-03T16:30:00Z,30.2583,-88.2131,110.7,1111122 
DISL,ioos:station:DISL:KATA:1,2017-02-03T17:00:00Z,30.2583,-88.2131,110.3,1111122 
DISL,ioos:station:DISL:KATA:1,2017-02-03T17:30:00Z,30.2583,-88.2131,109.5,1111122 
DISL,ioos:station:DISL:KATA:1,2017-02-03T18:00:00Z,30.2583,-88.2131,100.0,1111122 
DISL,ioos:station:DISL:KATA:1,2017-02-03T18:30:00Z,30.2583,-88.2131,100.0,1111122 
DISL,ioos:station:DISL:KATA:1,2017-02-03T19:00:00Z,30.2583,-88.2131,97.8,1111122 
DISL,ioos:station:DISL:KATA:1,2017-02-03T19:30:00Z,30.2583,-88.2131,92.1,1111122 
DISL,ioos:station:DISL:KATA:1,2017-02-03T20:00:00Z,30.2583,-88.2131,88.9,1111122 
DISL,ioos:station:DISL:KATA:1,2017-02-03T20:30:00Z,30.2583,-88.2131,86.6,1111122 
DISL,ioos:station:DISL:KATA:1,2017-02-03T21:00:00Z,30.2583,-88.2131,86.3,1111122 
DISL,ioos:station:DISL:KATA:1,2017-02-03T21:30:00Z,30.2583,-88.2131,86.1,1111122 
DISL,ioos:station:DISL:KATA:1,2017-02-03T22:00:00Z,30.2583,-88.2131,86.0,1111122 
DISL,ioos:station:DISL:KATA:1,2017-02-03T22:30:00Z,30.2583,-88.2131,83.1,1111122 
DISL,ioos:station:DISL:KATA:1,2017-02-03T23:00:00Z,30.2583,-88.2131,83.6,1111122 
DISL,ioos:station:DISL:KATA:1,2017-02-03T23:30:00Z,30.2583,-88.2131,83.2,1111122 
DISL,ioos:station:DISL:KATA:1,2017-02-04T00:00:00Z,30.2583,-88.2131,85.6,1111122 
DISL,ioos:station:DISL:KATA:1,2017-02-04T00:30:00Z,30.2583,-88.2131,86.8,1111122 
DISL,ioos:station:DISL:KATA:1,2017-02-04T01:00:00Z,30.2583,-88.2131,84.7,1111122 
DISL,ioos:station:DISL:KATA:1,2017-02-04T01:30:00Z,30.2583,-88.2131,83.4,1111122 
DISL,ioos:station:DISL:KATA:1,2017-02-04T02:00:00Z,30.2583,-88.2131,84.0,1111122 
DISL,ioos:station:DISL:KATA:1,2017-02-04T02:30:00Z,30.2583,-88.2131,86.2,1111122 
DISL,ioos:station:DISL:KATA:1,2017-02-04T03:00:00Z,30.2583,-88.2131,83.0,1111122 
DISL,ioos:station:DISL:KATA:1,2017-02-04T03:30:00Z,30.2583,-88.2131,81.8,1111122 
DISL,ioos:station:DISL:KATA:1,2017-02-04T04:00:00Z,30.2583,-88.2131,71.38,1111122 
DISL,ioos:station:DISL:KATA:1,2017-02-04T04:30:00Z,30.2583,-88.2131,69.13,1111122 
DISL,ioos:station:DISL:KATA:1,2017-02-04T05:00:00Z,30.2583,-88.2131,64.89,1111122 
DISL,ioos:station:DISL:KATA:1,2017-02-04T05:30:00Z,30.2583,-88.2131,67.42,1111122 
DISL,ioos:station:DISL:KATA:1,2017-02-04T06:00:00Z,30.2583,-88.2131,60.22,1111122 
DISL,ioos:station:DISL:KATA:1,2017-02-04T06:30:00Z,30.2583,-88.2131,61.51,1111122 
DISL,ioos:station:DISL:KATA:1,2017-02-04T07:00:00Z,30.2583,-88.2131,64.03,1111122 
DISL,ioos:station:DISL:KATA:1,2017-02-04T07:30:00Z,30.2583,-88.2131,64.13,1111122 
DISL,ioos:station:DISL:KATA:1,2017-02-04T08:00:00Z,30.2583,-88.2131,66.47,1111122 
DISL,ioos:station:DISL:KATA:1,2017-02-04T08:30:00Z,30.2583,-88.2131,65.39,1111122 
DISL,ioos:station:DISL:KATA:1,2017-02-04T09:00:00Z,30.2583,-88.2131,67.97,1111122 
DISL,ioos:station:DISL:KATA:1,2017-02-04T09:30:00Z,30.2583,-88.2131,62.88,1111122 
DISL,ioos:station:DISL:KATA:1,2017-02-04T10:00:00Z,30.2583,-88.2131,63.04,1111122 
DISL,ioos:station:DISL:KATA:1,2017-02-04T10:30:00Z,30.2583,-88.2131,59.65,1111122 
DISL,ioos:station:DISL:KATA:1,2017-02-04T11:00:00Z,30.2583,-88.2131,60.47,1111122 
DISL,ioos:station:DISL:KATA:1,2017-02-04T11:30:00Z,30.2583,-88.2131,59.8,1111122 
DISL,ioos:station:DISL:KATA:1,2017-02-04T12:00:00Z,30.2583,-88.2131,67.85,1111122 
DISL,ioos:station:DISL:KATA:1,2017-02-04T12:30:00Z,30.2583,-88.2131,63.57,1111122 
DISL,ioos:station:DISL:KATA:1,2017-02-04T13:00:00Z,30.2583,-88.2131,58.14,1111122 
DISL,ioos:station:DISL:KATA:1,2017-02-04T13:30:00Z,30.2583,-88.2131,59.28,1111122 
DISL,ioos:station:DISL:KATA:1,2017-02-04T14:00:00Z,30.2583,-88.2131,57.1,1111122 
DISL,ioos:station:DISL:KATA:1,2017-02-04T14:30:00Z,30.2583,-88.2131,61.14,1111122 
DISL,ioos:station:DISL:KATA:1,2017-02-04T15:00:00Z,30.2583,-88.2131,57.4,1111122 
DISL,ioos:station:DISL:KATA:1,2017-02-04T15:30:00Z,30.2583,-88.2131,56.05,1111122 
DISL,ioos:station:DISL:KATA:1,2017-02-04T16:00:00Z,30.2583,-88.2131,59.21,1111122 
DISL,ioos:station:DISL:KATA:1,2017-02-04T16:30:00Z,30.2583,-88.2131,52.34,1111122 
DISL,ioos:station:DISL:KATA:1,2017-02-04T17:00:00Z,30.2583,-88.2131,53.52,1111122 
DISL,ioos:station:DISL:KATA:1,2017-02-04T17:30:00Z,30.2583,-88.2131,53.85,1111122 
DISL,ioos:station:DISL:KATA:1,2017-02-04T18:00:00Z,30.2583,-88.2131,59.97,1111122 
DISL,ioos:station:DISL:KATA:1,2017-02-04T18:30:00Z,30.2583,-88.2131,64.18,1111122 
DISL,ioos:station:DISL:KATA:1,2017-02-04T19:00:00Z,30.2583,-88.2131,59.25,1111122 
DISL,ioos:station:DISL:KATA:1,2017-02-04T19:30:00Z,30.2583,-88.2131,60.14,1111122 
DISL,ioos:station:DISL:KATA:1,2017-02-04T20:00:00Z,30.2583,-88.2131,63.29,1111122 
DISL,ioos:station:DISL:KATA:1,2017-02-04T20:30:00Z,30.2583,-88.2131,41.36,1111122 
DISL,ioos:station:DISL:KATA:1,2017-02-04T21:00:00Z,30.2583,-88.2131,39.72,1111122 
DISL,ioos:station:DISL:KATA:1,2017-02-04T21:30:00Z,30.2583,-88.2131,39.35,1111122 
DISL,ioos:station:DISL:KATA:1,2017-02-04T22:00:00Z,30.2583,-88.2131,44.24,1111122 
DISL,ioos:station:DISL:KATA:1,2017-02-04T22:30:00Z,30.2583,-88.2131,46.92,1111122 
DISL,ioos:station:DISL:KATA:1,2017-02-04T23:00:00Z,30.2583,-88.2131,47.77,1111122 
DISL,ioos:station:DISL:KATA:1,2017-02-04T23:30:00Z,30.2583,-88.2131,50.21,1111122 
DISL,ioos:station:DISL:KATA:1,2017-02-05T00:00:00Z,30.2583,-88.2131,51.13,1111122 
DISL,ioos:station:DISL:KATA:1,2017-02-05T00:30:00Z,30.2583,-88.2131,51.44,1111122 
DISL,ioos:station:DISL:KATA:1,2017-02-05T01:00:00Z,30.2583,-88.2131,56.3,1111122 
DISL,ioos:station:DISL:KATA:1,2017-02-05T01:30:00Z,30.2583,-88.2131,58.81,1111122 
DISL,ioos:station:DISL:KATA:1,2017-02-05T02:00:00Z,30.2583,-88.2131,62.68,1111122 
DISL,ioos:station:DISL:KATA:1,2017-02-05T02:30:00Z,30.2583,-88.2131,59.83,1111122 
DISL,ioos:station:DISL:KATA:1,2017-02-05T03:00:00Z,30.2583,-88.2131,60.41,1111122 
DISL,ioos:station:DISL:KATA:1,2017-02-05T03:30:00Z,30.2583,-88.2131,65.64,1111122 
DISL,ioos:station:DISL:KATA:1,2017-02-05T04:00:00Z,30.2583,-88.2131,68.05,1111122 
DISL,ioos:station:DISL:KATA:1,2017-02-05T04:30:00Z,30.2583,-88.2131,67.33,1111122 
DISL,ioos:station:DISL:KATA:1,2017-02-05T05:00:00Z,30.2583,-88.2131,71.78,1111122 
DISL,ioos:station:DISL:KATA:1,2017-02-05T05:30:00Z,30.2583,-88.2131,71.58,1111122 
DISL,ioos:station:DISL:KATA:1,2017-02-05T06:00:00Z,30.2583,-88.2131,62.78,1111122 
DISL,ioos:station:DISL:KATA:1,2017-02-05T06:30:00Z,30.2583,-88.2131,70.32,1111122 
DISL,ioos:station:DISL:KATA:1,2017-02-05T07:00:00Z,30.2583,-88.2131,85.3,1111122 
DISL,ioos:station:DISL:KATA:1,2017-02-05T07:30:00Z,30.2583,-88.2131,84.1,1111122 
DISL,ioos:station:DISL:KATA:1,2017-02-05T08:00:00Z,30.2583,-88.2131,69.88,1111122 
DISL,ioos:station:DISL:KATA:1,2017-02-05T08:30:00Z,30.2583,-88.2131,70.62,1111122 
DISL,ioos:station:DISL:KATA:1,2017-02-05T09:00:00Z,30.2583,-88.2131,74.93,1111122 
DISL,ioos:station:DISL:KATA:1,2017-02-05T09:30:00Z,30.2583,-88.2131,85.5,1111122 
DISL,ioos:station:DISL:KATA:1,2017-02-05T10:00:00Z,30.2583,-88.2131,86.3,1111122 
DISL,ioos:station:DISL:KATA:1,2017-02-05T10:30:00Z,30.2583,-88.2131,76.66,1111122 
DISL,ioos:station:DISL:KATA:1,2017-02-05T11:00:00Z,30.2583,-88.2131,79.0,1111122 
DISL,ioos:station:DISL:KATA:1,2017-02-05T11:30:00Z,30.2583,-88.2131,75.29,1111122 
DISL,ioos:station:DISL:KATA:1,2017-02-05T12:00:00Z,30.2583,-88.2131,81.7,1111122 
DISL,ioos:station:DISL:KATA:1,2017-02-05T12:30:00Z,30.2583,-88.2131,81.9,1111122 
DISL,ioos:station:DISL:KATA:1,2017-02-05T13:00:00Z,30.2583,-88.2131,80.1,1111122 
DISL,ioos:station:DISL:KATA:1,2017-02-05T13:30:00Z,30.2583,-88.2131,83.2,1111122 
DISL,ioos:station:DISL:KATA:1,2017-02-05T14:00:00Z,30.2583,-88.2131,94.2,1111122 
DISL,ioos:station:DISL:KATA:1,2017-02-05T14:30:00Z,30.2583,-88.2131,93.7,1111122 
DISL,ioos:station:DISL:KATA:1,2017-02-05T15:00:00Z,30.2583,-88.2131,95.3,1111122 
DISL,ioos:station:DISL:KATA:1,2017-02-05T15:30:00Z,30.2583,-88.2131,97.6,1111122 
DISL,ioos:station:DISL:KATA:1,2017-02-05T16:00:00Z,30.2583,-88.2131,98.0,1111122 
DISL,ioos:station:DISL:KATA:1,2017-02-05T16:30:00Z,30.2583,-88.2131,100.0,1111122 
DISL,ioos:station:DISL:KATA:1,2017-02-05T17:00:00Z,30.2583,-88.2131,99.5,1111122 
DISL,ioos:station:DISL:KATA:1,2017-02-05T17:30:00Z,30.2583,-88.2131,98.9,1111122 
DISL,ioos:station:DISL:KATA:1,2017-02-05T18:00:00Z,30.2583,-88.2131,95.1,1111122 
DISL,ioos:station:DISL:KATA:1,2017-02-05T18:30:00Z,30.2583,-88.2131,88.1,1111122 
DISL,ioos:station:DISL:KATA:1,2017-02-05T19:00:00Z,30.2583,-88.2131,78.6,1111122 
DISL,ioos:station:DISL:KATA:1,2017-02-05T19:30:00Z,30.2583,-88.2131,78.87,1111122 
DISL,ioos:station:DISL:KATA:1,2017-02-05T20:00:00Z,30.2583,-88.2131,78.37,1111122 
DISL,ioos:station:DISL:KATA:1,2017-02-05T20:30:00Z,30.2583,-88.2131,82.9,1111122 
DISL,ioos:station:DISL:KATA:1,2017-02-05T21:00:00Z,30.2583,-88.2131,81.1,1111122 
DISL,ioos:station:DISL:KATA:1,2017-02-05T21:30:00Z,30.2583,-88.2131,76.75,1111122 
DISL,ioos:station:DISL:KATA:1,2017-02-05T22:00:00Z,30.2583,-88.2131,79.1,1111122 
DISL,ioos:station:DISL:KATA:1,2017-02-05T22:30:00Z,30.2583,-88.2131,82.3,1111122 
DISL,ioos:station:DISL:KATA:1,2017-02-05T23:00:00Z,30.2583,-88.2131,84.1,1111122 
DISL,ioos:station:DISL:KATA:1,2017-02-05T23:30:00Z,30.2583,-88.2131,86.7,1111122 
DISL,ioos:station:DISL:KATA:1,2017-02-06T00:00:00Z,30.2583,-88.2131,89.4,1111122 
DISL,ioos:station:DISL:KATA:1,2017-02-06T00:30:00Z,30.2583,-88.2131,91.9,1111122 
DISL,ioos:station:DISL:KATA:1,2017-02-06T01:00:00Z,30.2583,-88.2131,95.4,1111122 
DISL,ioos:station:DISL:KATA:1,2017-02-06T01:30:00Z,30.2583,-88.2131,97.4,1111122 
DISL,ioos:station:DISL:KATA:1,2017-02-06T02:00:00Z,30.2583,-88.2131,97.4,1111122 
DISL,ioos:station:DISL:KATA:1,2017-02-06T02:30:00Z,30.2583,-88.2131,98.1,1111122 
DISL,ioos:station:DISL:KATA:1,2017-02-06T03:00:00Z,30.2583,-88.2131,98.2,1111122 
DISL,ioos:station:DISL:KATA:1,2017-02-06T03:30:00Z,30.2583,-88.2131,99.0,1111122 
DISL,ioos:station:DISL:KATA:1,2017-02-06T04:00:00Z,30.2583,-88.2131,99.9,1111122 
DISL,ioos:station:DISL:KATA:1,2017-02-06T04:30:00Z,30.2583,-88.2131,100.0,1111122 
DISL,ioos:station:DISL:KATA:1,2017-02-06T05:00:00Z,30.2583,-88.2131,100.0,1111122 
DISL,ioos:station:DISL:KATA:1,2017-02-06T05:30:00Z,30.2583,-88.2131,100.0,1111122 
DISL,ioos:station:DISL:KATA:1,2017-02-06T06:00:00Z,30.2583,-88.2131,100.0,1111122 
DISL,ioos:station:DISL:KATA:1,2017-02-06T06:30:00Z,30.2583,-88.2131,100.0,1111122 
DISL,ioos:station:DISL:KATA:1,2017-02-06T07:00:00Z,30.2583,-88.2131,100.0,1111122 
DISL,ioos:station:DISL:KATA:1,2017-02-06T07:30:00Z,30.2583,-88.2131,100.0,1111122 
DISL,ioos:station:DISL:KATA:1,2017-02-06T08:00:00Z,30.2583,-88.2131,100.0,1111122 
DISL,ioos:station:DISL:KATA:1,2017-02-06T08:30:00Z,30.2583,-88.2131,100.0,1111122 
DISL,ioos:station:DISL:KATA:1,2017-02-06T09:00:00Z,30.2583,-88.2131,100.0,1111122 
DISL,ioos:station:DISL:KATA:1,2017-02-06T09:30:00Z,30.2583,-88.2131,100.0,1111122 
DISL,ioos:station:DISL:KATA:1,2017-02-06T10:00:00Z,30.2583,-88.2131,100.0,1111122 
DISL,ioos:station:DISL:KATA:1,2017-02-06T10:30:00Z,30.2583,-88.2131,100.0,1111122 
DISL,ioos:station:DISL:KATA:1,2017-02-06T11:00:00Z,30.2583,-88.2131,100.0,1111122 
DISL,ioos:station:DISL:KATA:1,2017-02-06T11:30:00Z,30.2583,-88.2131,100.0,1111122 
DISL,ioos:station:DISL:KATA:1,2017-02-06T12:00:00Z,30.2583,-88.2131,100.0,1111122 
DISL,ioos:station:DISL:KATA:1,2017-02-06T12:30:00Z,30.2583,-88.2131,100.0,1111122 
DISL,ioos:station:DISL:KATA:1,2017-02-06T13:00:00Z,30.2583,-88.2131,100.0,1111122 
DISL,ioos:station:DISL:KATA:1,2017-02-06T13:30:00Z,30.2583,-88.2131,100.0,1111122 
DISL,ioos:station:DISL:KATA:1,2017-02-06T14:00:00Z,30.2583,-88.2131,100.0,1111122 
DISL,ioos:station:DISL:KATA:1,2017-02-06T14:30:00Z,30.2583,-88.2131,100.0,1111122 
DISL,ioos:station:DISL:KATA:1,2017-02-06T15:00:00Z,30.2583,-88.2131,100.0,1111122 
DISL,ioos:station:DISL:KATA:1,2017-02-06T15:30:00Z,30.2583,-88.2131,100.0,1111122 
DISL,ioos:station:DISL:KATA:1,2017-02-06T16:00:00Z,30.2583,-88.2131,100.0,1111122 
DISL,ioos:station:DISL:KATA:1,2017-02-06T16:30:00Z,30.2583,-88.2131,108.2,1111122 
DISL,ioos:station:DISL:KATA:1,2017-02-06T17:00:00Z,30.2583,-88.2131,108.0,1111122 
DISL,ioos:station:DISL:KATA:1,2017-02-06T17:30:00Z,30.2583,-88.2131,100.0,1111122 
DISL,ioos:station:DISL:KATA:1,2017-02-06T18:00:00Z,30.2583,-88.2131,100.0,1111122 
DISL,ioos:station:DISL:KATA:1,2017-02-06T18:30:00Z,30.2583,-88.2131,100.0,1111122 
DISL,ioos:station:DISL:KATA:1,2017-02-06T19:00:00Z,30.2583,-88.2131,100.0,1111122 
DISL,ioos:station:DISL:KATA:1,2017-02-06T19:30:00Z,30.2583,-88.2131,109.6,1111122 
DISL,ioos:station:DISL:KATA:1,2017-02-06T20:00:00Z,30.2583,-88.2131,110.9,1111122 
DISL,ioos:station:DISL:KATA:1,2017-02-06T20:30:00Z,30.2583,-88.2131,111.1,1111122 
DISL,ioos:station:DISL:KATA:1,2017-02-06T21:00:00Z,30.2583,-88.2131,110.9,1111122 
DISL,ioos:station:DISL:KATA:1,2017-02-06T21:30:00Z,30.2583,-88.2131,110.9,1111122 
DISL,ioos:station:DISL:KATA:1,2017-02-06T22:00:00Z,30.2583,-88.2131,110.7,1111122 
DISL,ioos:station:DISL:KATA:1,2017-02-06T22:30:00Z,30.2583,-88.2131,110.5,1111122 
DISL,ioos:station:DISL:KATA:1,2017-02-06T23:00:00Z,30.2583,-88.2131,110.7,1111122 
DISL,ioos:station:DISL:KATA:1,2017-02-06T23:30:00Z,30.2583,-88.2131,111.1,1111122 
DISL,ioos:station:DISL:KATA:1,2017-02-07T00:00:00Z,30.2583,-88.2131,110.7,1111122 